This demonstration page uses our WeatherBlox Daily Observations layout. Learn more.

Left ArrowRight Arrow

Hourly Observations for June 30, 2017

Temp ( °F °C ) Dew Point ( °F °C ) Humidity (%) Winds ( mph kmh ) Pressure ( in mb ) Visibility ( mi km ) Precip ( " mm )
12:07 am 00:07 Clear 77 25 68 20 74 74 SSW 10 17 29.88 1012 10 16 N/A
12:27 am 00:27 Clear 77 25 68 20 74 74 SSW 13 20 29.88 1012 10 16 N/A
12:47 am 00:47 Partly Cloudy 77 25 68 20 74 74 S 13 20 29.88 1012 10 16 N/A
1:07 am 01:07 Partly Cloudy 77 25 68 20 74 74 SSW 14 22 29.88 1012 10 16 N/A
1:28 am 01:28 Partly Cloudy 77 25 68 20 74 74 SSW 13 20 29.88 1012 10 16 N/A
1:47 am 01:47 Partly Cloudy 75 24 68 20 78 78 SSW 13 20 29.88 1012 10 16 N/A
2:07 am 02:07 Clear 75 24 68 20 78 78 SSW 13 20 29.88 1012 10 16 N/A
2:27 am 02:27 Partly Cloudy 75 24 68 20 78 78 SSW 10 17 29.88 1012 10 16 N/A
2:47 am 02:47 Mostly Cloudy 75 24 68 20 78 78 SSW 12 19 29.88 1012 10 16 N/A
3:08 am 03:08 Mostly Cloudy 75 24 70 21 83 83 SW 13 20 29.88 1012 10 16 N/A
3:27 am 03:27 Mostly Cloudy 75 24 70 21 83 83 SSW 10 17 29.88 1012 10 16 N/A
3:47 am 03:47 Mostly Cloudy 75 24 70 21 83 83 SSW 13 20 29.88 1012 10 16 N/A
4:07 am 04:07 Partly Cloudy 73 23 70 21 89 89 SSW 14 22 29.88 1012 10 16 N/A
4:27 am 04:27 Clear 73 23 70 21 89 89 SSW 13 20 29.88 1012 10 16 N/A
4:47 am 04:47 Mostly Cloudy 73 23 70 21 89 89 SSW 10 17 29.88 1012 10 16 N/A
5:07 am 05:07 Partly Cloudy 73 23 70 21 89 89 SSW 8 13 29.88 1012 10 16 N/A
5:28 am 05:28 Mostly Cloudy 73 23 70 21 89 89 SSW 9 15 29.88 1012 10 16 N/A
5:47 am 05:47 Partly Cloudy 73 23 70 21 89 89 SSW 10 17 29.91 1013 10 16 N/A
6:07 am 06:07 Partly Cloudy 72 22 70 21 94 94 SSW 8 13 29.91 1013 10 16 N/A
6:27 am 06:27 Partly Cloudy 72 22 70 21 94 94 SW 8 13 29.91 1013 10 16 N/A
6:47 am 06:47 Mostly Cloudy 72 22 70 21 94 94 SSW 7 11 29.91 1013 10 16 N/A
7:08 am 07:08 Mostly Cloudy 72 22 70 21 94 94 SSW 9 15 29.91 1013 10 16 N/A
7:27 am 07:27 Mostly Cloudy 72 22 70 21 94 94 SSW 8 13 29.91 1013 10 16 N/A
7:47 am 07:47 Mostly Cloudy 72 22 70 21 94 94 S 8 13 29.91 1013 10 16 N/A
8:07 am 08:07 Mostly Cloudy 73 23 70 21 89 89 SSW 10 17 29.91 1013 10 16 N/A
8:27 am 08:27 Cloudy 73 23 70 21 89 89 SSW 9 15 29.91 1013 10 16 N/A
8:48 am 08:48 Cloudy 73 23 70 21 89 89 SSW 8 13 29.91 1013 10 16 N/A
9:07 am 09:07 Cloudy 73 23 70 21 89 89 SSW 8 13 29.91 1013 10 16 N/A
9:27 am 09:27 Cloudy 73 23 70 21 89 89 SSW 10 17 29.91 1013 10 16 N/A
9:47 am 09:47 Cloudy 75 24 70 21 83 83 SSW 10 17 29.91 1013 10 16 N/A
10:07 am 10:07 Cloudy 75 24 70 21 83 83 SW 10 17 29.91 1013 10 16 N/A
10:27 am 10:27 Cloudy 75 24 70 21 83 83 SW 9 15 29.91 1013 10 16 N/A
10:47 am 10:47 Cloudy 77 25 72 22 83 83 SSW 9 15 29.91 1013 10 16 N/A
11:07 am 11:07 Cloudy 77 25 72 22 83 83 SSW 8 13 29.91 1013 10 16 N/A
11:27 am 11:27 Cloudy 79 26 72 22 79 79 SSW 14 22 29.91 1013 10 16 N/A
11:47 am 11:47 Cloudy 79 26 72 22 79 79 SW 14 22 29.91 1013 10 16 N/A
12:07 pm 12:07 Mostly Cloudy 79 26 72 22 79 79 SSW 15 24 29.91 1013 10 16 N/A
12:28 pm 12:28 Mostly Cloudy 81 27 72 22 74 74 S 14 22 29.91 1013 10 16 N/A
12:47 pm 12:47 Mostly Cloudy 82 28 72 22 70 70 SSW 12 19 29.88 1012 10 16 N/A
1:07 pm 13:07 Partly Cloudy 82 28 72 22 70 70 SSW 10 17 29.88 1012 10 16 N/A
1:28 pm 13:28 Mostly Cloudy 81 27 72 22 74 74 S 10 17 29.88 1012 10 16 N/A
1:47 pm 13:47 Cloudy 77 25 72 22 83 83 S 12 19 29.88 1012 5 8 N/A
2:07 pm 14:07 Cloudy 77 25 73 23 89 89 S 6 9 29.88 1012 5 8 N/A
2:28 pm 14:28 Partly Cloudy 79 26 73 23 84 84 S 14 22 29.88 1012 10 16 N/A
2:47 pm 14:47 Sunny 81 27 73 23 79 79 S 12 19 29.85 1011 10 16 N/A
3:07 pm 15:07 Partly Cloudy 81 27 72 22 74 74 S 15 24 29.85 1011 10 16 N/A
3:28 pm 15:28 Partly Cloudy 79 26 72 22 79 79 S 12 19 29.85 1011 10 16 N/A
3:47 pm 15:47 Mostly Cloudy 77 25 72 22 83 83 S 12 19 29.85 1011 10 16 N/A
4:07 pm 16:07 Mostly Cloudy 77 25 72 22 83 83 SSW 9 15 29.85 1011 10 16 N/A
4:28 pm 16:28 Mostly Cloudy 77 25 72 22 83 83 SSW 9 15 29.85 1011 10 16 N/A
4:47 pm 16:47 Mostly Cloudy 77 25 72 22 83 83 S 6 9 29.85 1011 10 16 N/A
5:07 pm 17:07 Cloudy 73 23 68 20 83 83 WNW 21 33 29.88 1012 7 11 N/A
5:27 pm 17:27 Cloudy 68 20 66 19 94 94 N N/A 29.85 1011 10 16 N/A
5:47 pm 17:47 Cloudy 70 21 68 20 94 94 WNW 14 22 29.85 1011 10 16 N/A
6:08 pm 18:08 Cloudy 70 21 68 20 94 94 NW 12 19 29.85 1011 10 16 N/A
6:27 pm 18:27 Cloudy 68 20 66 19 94 94 N 6 9 29.85 1011 3 5 N/A
6:47 pm 18:47 Mostly Cloudy 68 20 66 19 94 94 NNE 7 11 29.83 1010 10 16 N/A
7:08 pm 19:08 Mostly Cloudy 68 20 66 19 94 94 NNE 7 11 29.83 1010 10 16 N/A
7:27 pm 19:27 Cloudy 68 20 66 19 94 94 NNW 9 15 29.85 1011 2 3 N/A
7:47 pm 19:47 Cloudy 68 20 66 19 94 94 N 5 7 29.85 1011 1 2 N/A
8:08 pm 20:08 Cloudy 66 19 66 19 100 100 ENE 5 7 29.88 1012 5 8 N/A
8:27 pm 20:27 Cloudy 68 20 66 19 94 94 ESE 3 6 29.85 1011 5 8 N/A
8:47 pm 20:47 Cloudy 68 20 66 19 94 94 SSE 7 11 29.85 1011 7 11 N/A
9:07 pm 21:07 Mostly Cloudy 68 20 66 19 94 94 SSE 6 9 29.83 1010 7 11 N/A
9:27 pm 21:27 Mostly Cloudy 68 20 66 19 94 94 S 8 13 29.83 1010 10 16 N/A
9:48 pm 21:48 Cloudy 68 20 66 19 94 94 SSW 3 6 29.85 1011 10 16 N/A
10:07 pm 22:07 Cloudy 68 20 66 19 94 94 N N/A 29.85 1011 10 16 N/A
10:27 pm 22:27 Mostly Cloudy 68 20 66 19 94 94 N N/A 29.85 1011 10 16 N/A
10:47 pm 22:47 Mostly Cloudy 66 19 66 19 100 100 N N/A 29.88 1012 10 16 N/A
11:07 pm 23:07 Mostly Cloudy 66 19 66 19 100 100 N N/A 29.88 1012 10 16 N/A
11:28 pm 23:28 Cloudy 68 20 66 19 94 94 SSW 3 6 29.85 1011 10 16 N/A
11:47 pm 23:47 Cloudy 66 19 66 19 100 100 SW 3 6 29.91 1013 10 16 N/A

Powered by AerisWeather